Time,TemperatureF,DewpointF,PressureIn,WindDirection,WindDirectionDegrees,WindSpeedMPH,WindSpeedGustMPH,Humidity,HourlyPrecipIn,Conditions,Clouds,dailyrainin,SoftwareType,DateUTC
2013-09-20 00:08:00,53.6,41.7,29.71,ESE,112,2.0,-999.0,64,-99.99,,,0.00,Acu-Link.com,2013-09-20 07:08:00,
2013-09-20 00:23:00,53.6,42.1,29.71,East,90,2.7,-999.0,65,-99.99,,,0.00,Acu-Link.com,2013-09-20 07:23:00,
2013-09-20 00:38:00,51.8,40.8,29.71,ESE,112,2.7,-999.0,66,-99.99,,,0.00,Acu-Link.com,2013-09-20 07:38:00,
2013-09-20 00:53:00,51.8,41.2,29.71,ESE,112,2.7,-999.0,67,-99.99,,,0.00,Acu-Link.com,2013-09-20 07:53:00,
2013-09-20 01:08:00,51.8,41.6,29.71,ESE,112,1.6,-999.0,68,-99.99,,,0.00,Acu-Link.com,2013-09-20 08:08:00,
2013-09-20 01:25:00,51.8,41.6,29.71,ESE,112,1.6,-999.0,68,-99.99,,,0.00,Acu-Link.com,2013-09-20 08:25:00,
2013-09-20 01:41:00,51.8,41.6,29.71,ESE,112,1.6,-999.0,68,-99.99,,,0.00,Acu-Link.com,2013-09-20 08:41:00,
2013-09-20 01:57:00,50.0,40.2,29.71,ESE,112,1.6,-999.0,69,-99.99,,,0.00,Acu-Link.com,2013-09-20 08:57:00,
2013-09-20 02:12:00,50.0,40.2,29.71,ESE,112,2.0,-999.0,69,-99.99,,,0.00,Acu-Link.com,2013-09-20 09:12:00,
2013-09-20 02:27:00,50.0,40.2,29.70,East,90,2.7,-999.0,69,-99.99,,,0.00,Acu-Link.com,2013-09-20 09:27:00,
2013-09-20 02:42:00,50.0,40.2,29.70,ESE,112,2.0,-999.0,69,-99.99,,,0.00,Acu-Link.com,2013-09-20 09:42:00,
2013-09-20 02:57:00,50.0,40.6,29.70,ENE,67,2.0,-999.0,70,-99.99,,,0.00,Acu-Link.com,2013-09-20 09:57:00,
2013-09-20 03:12:00,50.0,41.0,29.69,ESE,112,1.6,-999.0,71,-99.99,,,0.00,Acu-Link.com,2013-09-20 10:12:00,
2013-09-20 03:27:00,50.0,41.3,29.69,East,90,1.6,-999.0,72,-99.99,,,0.00,Acu-Link.com,2013-09-20 10:27:00,
2013-09-20 03:42:00,48.2,39.6,29.69,East,90,1.6,-999.0,72,-99.99,,,0.00,Acu-Link.com,2013-09-20 10:42:00,
2013-09-20 03:57:00,48.2,40.0,29.68,East,90,1.6,-999.0,73,-99.99,,,0.00,Acu-Link.com,2013-09-20 10:57:00,
2013-09-20 04:12:00,48.2,40.0,29.69,ESE,112,2.0,-999.0,73,-99.99,,,0.00,Acu-Link.com,2013-09-20 11:12:00,
2013-09-20 04:27:00,48.2,40.0,29.69,ESE,112,2.0,-999.0,73,-99.99,,,0.00,Acu-Link.com,2013-09-20 11:27:00,
2013-09-20 04:42:00,48.2,40.0,29.68,ESE,112,1.6,-999.0,73,-99.99,,,0.00,Acu-Link.com,2013-09-20 11:42:00,
2013-09-20 04:57:00,48.2,40.0,29.68,ESE,112,1.6,-999.0,73,-99.99,,,0.00,Acu-Link.com,2013-09-20 11:57:00,
2013-09-20 05:13:00,46.4,38.2,29.67,East,90,2.0,-999.0,73,-99.99,,,0.00,Acu-Link.com,2013-09-20 12:13:00,
2013-09-20 05:28:00,46.4,38.6,29.67,ESE,112,2.7,-999.0,74,-99.99,,,0.00,Acu-Link.com,2013-09-20 12:28:00,
2013-09-20 05:43:00,46.4,38.6,29.66,ESE,112,2.0,-999.0,74,-99.99,,,0.00,Acu-Link.com,2013-09-20 12:43:00,
2013-09-20 05:58:00,46.4,38.6,29.66,ESE,112,1.6,-999.0,74,-99.99,,,0.00,Acu-Link.com,2013-09-20 12:58:00,
2013-09-20 06:13:00,46.4,38.9,29.66,East,90,0.0,-999.0,75,-99.99,,,0.00,Acu-Link.com,2013-09-20 13:13:00,
2013-09-20 06:28:00,44.6,38.2,29.66,East,90,0.0,-999.0,78,-99.99,,,0.00,Acu-Link.com,2013-09-20 13:28:00,
2013-09-20 06:43:00,44.6,38.8,29.65,ESE,112,1.1,-999.0,80,-99.99,,,0.00,Acu-Link.com,2013-09-20 13:43:00,
2013-09-20 06:58:00,44.6,38.8,29.65,ESE,112,2.0,-999.0,80,-99.99,,,0.00,Acu-Link.com,2013-09-20 13:58:00,
2013-09-20 07:14:00,44.6,38.5,29.65,East,90,1.6,-999.0,79,-99.99,,,0.00,Acu-Link.com,2013-09-20 14:14:00,
2013-09-20 07:29:00,46.4,39.9,29.65,East,90,0.0,-999.0,78,-99.99,,,0.00,Acu-Link.com,2013-09-20 14:29:00,
2013-09-20 07:44:00,46.4,39.9,29.65,SSE,157,0.0,-999.0,78,-99.99,,,0.00,Acu-Link.com,2013-09-20 14:44:00,
2013-09-20 07:59:00,46.4,40.2,29.65,ESE,112,1.6,-999.0,79,-99.99,,,0.00,Acu-Link.com,2013-09-20 14:59:00,
2013-09-20 08:14:00,48.2,40.3,29.64,ESE,112,2.7,-999.0,74,-99.99,,,0.00,Acu-Link.com,2013-09-20 15:14:00,
2013-09-20 08:29:00,50.0,41.3,29.65,ESE,112,2.0,-999.0,72,-99.99,,,0.00,Acu-Link.com,2013-09-20 15:29:00,
2013-09-20 08:44:00,51.8,42.0,29.64,SSE,157,1.1,-999.0,69,-99.99,,,0.00,Acu-Link.com,2013-09-20 15:44:00,
2013-09-20 08:59:00,53.6,41.7,29.64,ESE,112,2.7,-999.0,64,-99.99,,,0.00,Acu-Link.com,2013-09-20 15:59:00,
2013-09-20 09:14:00,55.4,41.7,29.63,ESE,112,1.6,-999.0,60,-99.99,,,0.00,Acu-Link.com,2013-09-20 16:14:00,
2013-09-20 09:29:00,55.4,41.3,29.63,ESE,112,2.7,-999.0,59,-99.99,,,0.00,Acu-Link.com,2013-09-20 16:29:00,
2013-09-20 09:44:00,57.2,42.1,29.62,ESE,112,3.1,-999.0,57,-99.99,,,0.00,Acu-Link.com,2013-09-20 16:44:00,
2013-09-20 09:59:00,59.0,42.9,29.63,ESE,112,2.7,-999.0,55,-99.99,,,0.00,Acu-Link.com,2013-09-20 16:59:00,
2013-09-20 10:14:00,59.0,41.9,29.62,East,90,2.7,-999.0,53,-99.99,,,0.00,Acu-Link.com,2013-09-20 17:14:00,
2013-09-20 10:29:00,60.8,42.6,29.62,ESE,112,2.0,-999.0,51,-99.99,,,0.00,Acu-Link.com,2013-09-20 17:29:00,
2013-09-20 10:44:00,60.8,42.0,29.61,SW,225,2.7,-999.0,50,-99.99,,,0.00,Acu-Link.com,2013-09-20 17:44:00,
2013-09-20 10:59:00,60.8,41.5,29.60,SSE,157,3.1,-999.0,49,-99.99,,,0.00,Acu-Link.com,2013-09-20 17:59:00,
2013-09-20 11:14:00,62.6,42.6,29.59,ESE,112,3.1,-999.0,48,-99.99,,,0.00,Acu-Link.com,2013-09-20 18:14:00,
2013-09-20 11:30:00,62.6,43.2,29.59,NE,45,3.6,-999.0,49,-99.99,,,0.00,Acu-Link.com,2013-09-20 18:30:00,
2013-09-20 11:45:00,62.6,41.5,29.58,SE,135,2.7,-999.0,46,-99.99,,,0.00,Acu-Link.com,2013-09-20 18:45:00,
2013-09-20 12:00:00,62.6,41.5,29.57,South,180,3.6,-999.0,46,-99.99,,,0.00,Acu-Link.com,2013-09-20 19:00:00,
2013-09-20 12:15:00,64.4,42.0,29.57,ESE,112,1.6,-999.0,44,-99.99,,,0.00,Acu-Link.com,2013-09-20 19:15:00,
2013-09-20 12:30:00,66.2,43.0,29.56,ESE,112,3.1,-999.0,43,-99.99,,,0.00,Acu-Link.com,2013-09-20 19:30:00,
2013-09-20 12:45:00,68.0,44.0,29.56,SE,135,2.7,-999.0,42,-99.99,,,0.00,Acu-Link.com,2013-09-20 19:45:00,
2013-09-20 13:00:00,68.0,43.4,29.55,SSE,157,3.1,-999.0,41,-99.99,,,0.00,Acu-Link.com,2013-09-20 20:00:00,
2013-09-20 13:16:00,69.8,45.0,29.55,East,90,3.6,-999.0,41,-99.99,,,0.00,Acu-Link.com,2013-09-20 20:16:00,
2013-09-20 13:31:00,68.0,42.8,29.54,East,90,3.6,-999.0,40,-99.99,,,0.00,Acu-Link.com,2013-09-20 20:31:00,
2013-09-20 13:46:00,68.0,44.0,29.54,ESE,112,6.7,-999.0,42,-99.99,,,0.00,Acu-Link.com,2013-09-20 20:46:00,
2013-09-20 14:01:00,68.0,44.0,29.53,South,180,4.0,-999.0,42,-99.99,,,0.00,Acu-Link.com,2013-09-20 21:01:00,
2013-09-20 14:17:00,66.2,44.2,29.53,South,180,2.7,-999.0,45,-99.99,,,0.00,Acu-Link.com,2013-09-20 21:17:00,
2013-09-20 14:32:00,68.0,44.7,29.52,SSE,157,3.6,-999.0,43,-99.99,,,0.00,Acu-Link.com,2013-09-20 21:32:00,
2013-09-20 14:47:00,66.2,44.8,29.52,ESE,112,4.0,-999.0,46,-99.99,,,0.00,Acu-Link.com,2013-09-20 21:47:00,
2013-09-20 15:02:00,64.4,42.6,29.52,ESE,112,2.0,-999.0,45,-99.99,,,0.00,Acu-Link.com,2013-09-20 22:02:00,
2013-09-20 15:17:00,66.2,44.8,29.51,WSW,247,3.1,-999.0,46,-99.99,,,0.00,Acu-Link.com,2013-09-20 22:17:00,
2013-09-20 15:32:00,68.0,44.0,29.50,ESE,112,1.6,-999.0,42,-99.99,,,0.00,Acu-Link.com,2013-09-20 22:32:00,
2013-09-20 15:48:00,66.2,42.4,29.50,East,90,1.1,-999.0,42,-99.99,,,0.00,Acu-Link.com,2013-09-20 22:48:00,
2013-09-20 16:03:00,66.2,43.0,29.50,ESE,112,1.6,-999.0,43,-99.99,,,0.00,Acu-Link.com,2013-09-20 23:03:00,
2013-09-20 16:18:00,66.2,43.0,29.50,East,90,3.1,-999.0,43,-99.99,,,0.00,Acu-Link.com,2013-09-20 23:18:00,
2013-09-20 16:33:00,66.2,42.4,29.49,ESE,112,2.0,-999.0,42,-99.99,,,0.00,Acu-Link.com,2013-09-20 23:33:00,
2013-09-20 16:49:00,68.0,43.4,29.48,East,90,3.6,-999.0,41,-99.99,,,0.00,Acu-Link.com,2013-09-20 23:49:00,
2013-09-20 17:04:00,68.0,44.7,29.48,East,90,1.6,-999.0,43,-99.99,,,0.00,Acu-Link.com,2013-09-21 00:04:00,
2013-09-20 17:19:00,68.0,43.4,29.47,NE,45,0.0,-999.0,41,-99.99,,,0.00,Acu-Link.com,2013-09-21 00:19:00,
2013-09-20 17:34:00,68.0,45.9,29.47,ENE,67,1.6,-999.0,45,-99.99,,,0.00,Acu-Link.com,2013-09-21 00:34:00,
2013-09-20 17:49:00,68.0,47.6,29.46,ESE,112,0.0,-999.0,48,-99.99,,,0.00,Acu-Link.com,2013-09-21 00:49:00,
2013-09-20 18:04:00,66.2,45.9,29.46,North,0,1.6,-999.0,48,-99.99,,,0.00,Acu-Link.com,2013-09-21 01:04:00,
2013-09-20 18:19:00,64.4,44.8,29.45,ENE,67,1.6,-999.0,49,-99.99,,,0.00,Acu-Link.com,2013-09-21 01:19:00,
2013-09-20 18:34:00,62.6,43.7,29.45,ESE,112,1.6,-999.0,50,-99.99,,,0.00,Acu-Link.com,2013-09-21 01:34:00,
2013-09-20 18:49:00,60.8,43.1,29.45,SSE,157,0.0,-999.0,52,-99.99,,,0.00,Acu-Link.com,2013-09-21 01:49:00,
2013-09-20 19:04:00,60.8,44.0,29.44,South,180,0.0,-999.0,54,-99.99,,,0.00,Acu-Link.com,2013-09-21 02:04:00,
2013-09-20 19:20:00,59.0,44.2,29.45,East,90,0.0,-999.0,58,-99.99,,,0.00,Acu-Link.com,2013-09-21 02:20:00,
2013-09-20 19:35:00,59.0,44.7,29.45,ENE,67,0.0,-999.0,59,-99.99,,,0.00,Acu-Link.com,2013-09-21 02:35:00,
2013-09-20 19:50:00,57.2,44.3,29.45,NE,45,1.1,-999.0,62,-99.99,,,0.00,Acu-Link.com,2013-09-21 02:50:00,
2013-09-20 20:05:00,57.2,43.4,29.45,NE,45,1.6,-999.0,60,-99.99,,,0.00,Acu-Link.com,2013-09-21 03:05:00,
2013-09-20 20:20:00,57.2,43.0,29.45,ESE,112,1.6,-999.0,59,-99.99,,,0.00,Acu-Link.com,2013-09-21 03:20:00,
2013-09-20 20:36:00,57.2,42.6,29.45,East,90,1.1,-999.0,58,-99.99,,,0.00,Acu-Link.com,2013-09-21 03:36:00,
2013-09-20 20:51:00,55.4,41.3,29.44,East,90,0.0,-999.0,59,-99.99,,,0.00,Acu-Link.com,2013-09-21 03:51:00,
2013-09-20 21:06:00,55.4,42.2,29.45,NE,45,0.0,-999.0,61,-99.99,,,0.00,Acu-Link.com,2013-09-21 04:06:00,
2013-09-20 21:21:00,55.4,43.4,29.44,East,90,0.0,-999.0,64,-99.99,,,0.00,Acu-Link.com,2013-09-21 04:21:00,
2013-09-20 21:36:00,55.4,42.6,29.44,West,270,1.6,-999.0,62,-99.99,,,0.00,Acu-Link.com,2013-09-21 04:36:00,
2013-09-20 21:52:00,55.4,43.4,29.44,East,90,1.6,-999.0,64,-99.99,,,0.00,Acu-Link.com,2013-09-21 04:52:00,
2013-09-20 22:07:00,55.4,41.7,29.43,East,90,2.0,-999.0,60,-99.99,,,0.00,Acu-Link.com,2013-09-21 05:07:00,
2013-09-20 22:22:00,55.4,41.3,29.43,ESE,112,1.6,-999.0,59,-99.99,,,0.00,Acu-Link.com,2013-09-21 05:22:00,
2013-09-20 22:37:00,55.4,43.8,29.43,ESE,112,0.0,-999.0,65,-99.99,,,0.00,Acu-Link.com,2013-09-21 05:37:00,
2013-09-20 22:52:00,55.4,43.0,29.43,SSW,202,0.0,-999.0,63,-99.99,,,0.00,Acu-Link.com,2013-09-21 05:52:00,
2013-09-20 23:07:00,53.6,42.5,29.43,South,180,0.0,-999.0,66,-99.99,,,0.00,Acu-Link.com,2013-09-21 06:07:00,
2013-09-20 23:23:00,53.6,43.7,29.42,ENE,67,0.0,-999.0,69,-99.99,,,0.00,Acu-Link.com,2013-09-21 06:23:00,
2013-09-20 23:38:00,53.6,43.3,29.42,ENE,67,0.0,-999.0,68,-99.99,,,0.00,Acu-Link.com,2013-09-21 06:38:00,
2013-09-20 23:53:00,53.6,43.3,29.42,ENE,67,0.0,-999.0,68,-99.99,,,0.00,Acu-Link.com,2013-09-21 06:53:00,